{"data":{"norad_id":52349,"epoch":"2026-09-19T23:12:50.007744Z","epoch_age_seconds":105518,"freshness":"FRESH","line1":"1 52349U 22045U   26262.96724546 -.00002303  00000+0 -55131-4 0  9995","line2":"2 52349  53.1611  32.0121 0001191 120.0883 240.0238 15.35407828245312","mean_motion":15.35407828,"eccentricity":0.0001191,"inclination_deg":53.1611,"raan_deg":32.0121,"arg_perigee_deg":120.0883,"mean_anomaly_deg":240.0238,"bstar":-5.5131e-5,"rev_number":24531,"period_min":93.786157250203,"perigee_km":458.89501411784,"apogee_km":460.52378913071,"semimajor_km":6837.8464016243,"source":"CELESTRAK","updated_at":"2026-09-20T09:00:40.024590Z"}}